Location: Coors Field
(39.7564°N, 104.9943°W)
Time: 04:09:18
(UTC-06:00)

ISS - Visible Passes

Search period start: 30 July 2015 00:00
Search period end: 09 August 2015 00:00
Orbit: 401 x 403 km, 51.6° (Epoch: 30 July)

Date Brightness Start Highest point End Pass type
(mag) Time Alt. Az. Time Alt. Az. Time Alt. Az.
30 Jul 0.2 02:00:31 10° N 02:01:14 11° N 02:01:58 10° NNE visible
30 Jul -0.6 03:36:04 10° NNW 03:38:38 21° NNE 03:41:13 10° ENE visible
30 Jul -3.3 05:12:05 10° WNW 05:15:18 57° SW 05:18:29 10° SE visible
30 Jul -3.5 21:50:36 10° SW 21:53:48 65° SE 21:56:37 13° ENE visible
30 Jul -0.5 23:28:00 10° WNW 23:29:33 18° NW 23:29:33 18° NW visible
31 Jul -0.2 02:43:23 10° NNW 02:45:25 15° NNE 02:47:30 10° ENE visible
31 Jul -3.1 04:19:06 10° NW 04:22:22 69° NE 04:25:36 10° ESE visible
31 Jul -2.6 20:58:03 10° SSW 21:00:56 31° SE 21:03:52 10° ENE visible
31 Jul -1.3 22:34:27 10° W 22:37:21 30° NNW 22:40:17 10° NE visible
01 Aug 0.2 00:13:25 10° NNW 00:14:29 11° N 00:14:29 11° N visible
01 Aug -1.8 03:28:01 25° NNW 03:29:20 37° NNE 03:32:24 10° E visible
01 Aug -2.2 05:02:59 10° WNW 05:05:39 23° SW 05:08:16 10° S visible
01 Aug -2.5 21:41:07 10° WSW 21:44:18 52° NW 21:47:30 10° NE visible
01 Aug 0.0 23:19:31 10° NW 23:21:20 14° NNW 23:23:07 10° NNE visible
02 Aug -1.0 04:15:24 14° SSE 04:15:24 14° SSE 04:15:56 10° SSE visible
02 Aug -3.4 20:48:06 10° SW 20:51:20 80° SE 20:54:35 10° NE visible
02 Aug -0.4 22:25:44 10° WNW 22:28:06 18° NNW 22:30:28 10° NNE visible
03 Aug 0.2 00:04:58 10° N 00:05:34 10° N 00:05:43 10° N visible
03 Aug -1.0 21:32:07 10° W 21:34:56 26° NNW 21:37:46 10° NNE visible
03 Aug 0.1 23:11:14 10° NNW 23:12:15 11° N 23:13:15 10° N visible
04 Aug -2.0 20:38:44 10° WSW 20:41:51 43° NNW 20:44:59 10° NE visible
04 Aug -0.1 22:17:19 10° NW 22:18:58 13° NNW 22:20:34 10° NNE visible
04 Aug 0.2 23:55:31 10° N 23:55:57 11° N 23:55:57 11° N visible
05 Aug -0.4 21:23:29 10° WNW 21:25:43 17° NNW 21:27:55 10° NNE visible
05 Aug 0.0 23:02:38 10° N 23:03:12 10° N 23:03:46 10° N visible
06 Aug -0.1 22:09:01 10° NNW 22:09:53 11° N 22:10:44 10° N visible
06 Aug 0.2 23:45:39 10° NNW 23:46:05 11° NNW 23:46:05 11° NNW visible
07 Aug -0.3 21:15:08 10° NW 21:16:36 12° NNW 21:18:03 10° NNE visible
07 Aug -0.2 22:53:00 10° NNW 22:54:09 11° N 22:54:51 11° NNE visible
08 Aug -0.2 22:00:13 10° N 22:00:51 10° N 22:01:29 10° NNE visible
08 Aug 0.1 23:35:47 10° NNW 23:36:13 12° NNW 23:36:13 12° NNW visible
